TimeCDT,TemperatureF,Dew PointF,Humidity,Sea Level PressureIn,VisibilityMPH,Wind Direction,Wind SpeedMPH,Gust SpeedMPH,PrecipitationIn,Events,Conditions,WindDirDegrees,DateUTC
12:14 AM,45.3,38.5,77,29.77,10.0,NW,10.4,-,N/A,,Clear,310,2012-10-14 05:14:00
12:35 AM,45.3,37.9,75,29.79,10.0,NW,8.1,-,N/A,,Clear,310,2012-10-14 05:35:00
12:55 AM,46.0,37.0,71,29.79,10.0,NW,9.2,-,N/A,,Clear,320,2012-10-14 05:55:00
1:14 AM,45.9,36.5,70,29.79,10.0,NW,10.4,-,N/A,,Clear,320,2012-10-14 06:14:00
1:35 AM,45.5,35.6,68,29.80,10.0,NW,12.7,17.3,N/A,,Clear,310,2012-10-14 06:35:00
1:55 AM,44.8,35.1,69,29.80,10.0,NW,11.5,-,N/A,,Clear,310,2012-10-14 06:55:00
2:14 AM,44.6,34.3,67,29.80,10.0,NW,11.5,-,N/A,,Clear,310,2012-10-14 07:14:00
2:35 AM,43.7,34.2,69,29.80,10.0,NW,11.5,-,N/A,,Clear,310,2012-10-14 07:35:00
2:54 AM,43.2,33.8,70,29.81,10.0,NW,10.4,-,N/A,,Clear,310,2012-10-14 07:54:00
3:14 AM,42.8,32.9,68,29.81,10.0,NW,11.5,-,N/A,,Clear,310,2012-10-14 08:14:00
3:34 AM,42.8,32.4,67,29.81,10.0,NW,12.7,-,N/A,,Clear,310,2012-10-14 08:34:00
3:54 AM,43.0,32.2,66,29.81,10.0,NW,12.7,18.4,N/A,,Clear,320,2012-10-14 08:54:00
4:15 AM,42.6,32.0,66,29.83,10.0,NW,10.4,-,N/A,,Clear,320,2012-10-14 09:15:00
4:35 AM,41.9,32.0,68,29.83,10.0,NW,9.2,-,N/A,,Clear,320,2012-10-14 09:35:00
4:54 AM,41.0,32.0,70,29.83,10.0,NW,8.1,-,N/A,,Clear,320,2012-10-14 09:54:00
5:15 AM,40.5,31.8,71,29.84,10.0,NW,10.4,-,N/A,,Clear,310,2012-10-14 10:15:00
5:34 AM,40.3,31.8,72,29.84,10.0,NW,10.4,-,N/A,,Clear,310,2012-10-14 10:34:00
5:54 AM,40.1,31.8,72,29.84,10.0,NW,10.4,-,N/A,,Clear,310,2012-10-14 10:54:00
6:15 AM,40.5,31.8,71,29.85,10.0,NW,16.1,-,N/A,,Clear,310,2012-10-14 11:15:00
6:34 AM,40.8,31.6,70,29.86,10.0,NW,15.0,-,N/A,,Clear,310,2012-10-14 11:34:00
6:54 AM,40.5,31.5,70,29.86,10.0,NW,10.4,-,N/A,,Clear,310,2012-10-14 11:54:00
7:14 AM,39.9,31.1,71,29.86,10.0,NW,10.4,-,N/A,,Clear,310,2012-10-14 12:14:00
7:34 AM,40.1,31.3,71,29.86,10.0,NW,11.5,-,N/A,,Clear,320,2012-10-14 12:34:00
7:55 AM,40.5,31.5,70,29.87,10.0,NW,11.5,-,N/A,,Clear,320,2012-10-14 12:55:00
8:14 AM,40.1,31.5,71,29.88,10.0,NW,11.5,-,N/A,,Clear,320,2012-10-14 13:14:00
8:34 AM,39.6,31.5,73,29.88,10.0,NW,13.8,-,N/A,,Clear,310,2012-10-14 13:34:00
8:55 AM,39.6,31.5,73,29.88,10.0,NW,13.8,-,N/A,,Clear,310,2012-10-14 13:55:00
9:14 AM,41.4,31.8,69,29.89,10.0,NW,16.1,-,N/A,,Clear,310,2012-10-14 14:14:00
9:34 AM,43.0,32.0,65,29.88,10.0,NW,15.0,-,N/A,,Clear,310,2012-10-14 14:34:00
9:55 AM,44.6,32.0,61,29.89,10.0,NW,18.4,21.9,N/A,,Clear,320,2012-10-14 14:55:00
10:14 AM,45.5,32.4,60,29.90,10.0,NW,17.3,-,N/A,,Clear,310,2012-10-14 15:14:00
10:34 AM,47.3,32.9,57,29.90,10.0,NW,17.3,23.0,N/A,,Clear,310,2012-10-14 15:34:00
10:54 AM,48.9,33.1,54,29.91,10.0,NNW,16.1,24.2,N/A,,Clear,330,2012-10-14 15:54:00
11:14 AM,50.2,32.9,52,29.91,10.0,NW,18.4,24.2,N/A,,Clear,320,2012-10-14 16:14:00
11:34 AM,51.1,32.5,49,29.91,10.0,NNW,13.8,24.2,N/A,,Clear,330,2012-10-14 16:34:00
11:54 AM,52.7,32.2,46,29.90,10.0,NNW,17.3,-,N/A,,Clear,330,2012-10-14 16:54:00
12:15 PM,53.6,32.0,44,29.91,10.0,NNW,16.1,25.3,N/A,,Clear,330,2012-10-14 17:15:00
12:34 PM,54.5,32.0,42,29.91,10.0,NW,17.3,25.3,N/A,,Clear,320,2012-10-14 17:34:00
12:54 PM,55.4,31.1,40,29.90,10.0,NW,19.6,26.5,N/A,,Clear,320,2012-10-14 17:54:00
1:15 PM,56.1,31.3,39,29.90,10.0,NNW,15.0,23.0,N/A,,Clear,340,2012-10-14 18:15:00
1:34 PM,56.7,31.5,38,29.90,10.0,NW,15.0,21.9,N/A,,Clear,320,2012-10-14 18:34:00
1:55 PM,57.6,31.3,37,29.90,10.0,NNW,16.1,24.2,N/A,,Clear,330,2012-10-14 18:55:00
2:15 PM,57.9,32.0,37,29.90,10.0,NW,17.3,26.5,N/A,,Clear,320,2012-10-14 19:15:00
2:34 PM,58.3,32.5,38,29.90,10.0,NNW,16.1,24.2,N/A,,Clear,330,2012-10-14 19:34:00
2:54 PM,57.7,32.9,39,29.90,10.0,NNW,17.3,-,N/A,,Clear,340,2012-10-14 19:54:00
3:15 PM,59.0,33.3,38,29.89,10.0,NW,15.0,19.6,N/A,,Clear,320,2012-10-14 20:15:00
3:34 PM,58.6,33.4,39,29.89,10.0,NNW,17.3,21.9,N/A,,Clear,330,2012-10-14 20:34:00
3:54 PM,59.0,33.8,39,29.90,10.0,North,13.8,-,N/A,,Clear,350,2012-10-14 20:54:00
4:14 PM,59.0,34.2,39,29.90,10.0,NW,13.8,19.6,N/A,,Clear,320,2012-10-14 21:14:00
4:35 PM,59.4,34.3,39,29.90,10.0,NW,15.0,21.9,N/A,,Clear,320,2012-10-14 21:35:00
4:54 PM,59.2,34.7,40,29.90,10.0,NW,11.5,16.1,N/A,,Clear,310,2012-10-14 21:54:00
5:14 PM,59.0,34.3,40,29.91,10.0,NW,11.5,18.4,N/A,,Clear,320,2012-10-14 22:14:00
5:34 PM,58.8,34.5,40,29.91,10.0,NNW,12.7,-,N/A,,Clear,330,2012-10-14 22:34:00
5:54 PM,57.9,34.7,42,29.91,10.0,NNW,8.1,-,N/A,,Clear,340,2012-10-14 22:54:00
6:15 PM,56.5,34.7,44,29.91,10.0,NNW,6.9,-,N/A,,Clear,340,2012-10-14 23:15:00
6:34 PM,54.7,34.7,47,29.91,10.0,NNW,4.6,-,N/A,,Clear,330,2012-10-14 23:34:00
6:55 PM,51.6,34.2,51,29.91,10.0,NW,4.6,-,N/A,,Clear,320,2012-10-14 23:55:00
7:14 PM,48.9,33.4,55,29.92,10.0,WNW,5.8,-,N/A,,Clear,290,2012-10-15 00:14:00
7:35 PM,48.4,33.1,56,29.92,10.0,West,4.6,-,N/A,,Clear,260,2012-10-15 00:35:00
7:54 PM,46.4,32.7,59,29.93,10.0,West,5.8,-,N/A,,Clear,260,2012-10-15 00:54:00
8:15 PM,44.6,32.4,62,29.93,10.0,West,5.8,-,N/A,,Clear,260,2012-10-15 01:15:00
8:35 PM,43.9,32.4,64,29.93,10.0,West,4.6,-,N/A,,Clear,270,2012-10-15 01:35:00
8:55 PM,44.6,32.9,64,29.94,10.0,West,4.6,-,N/A,,Clear,270,2012-10-15 01:55:00
9:14 PM,44.6,33.1,64,29.94,10.0,West,4.6,-,N/A,,Clear,270,2012-10-15 02:14:00
9:34 PM,43.9,33.3,66,29.95,10.0,West,5.8,-,N/A,,Clear,260,2012-10-15 02:34:00
9:54 PM,43.9,33.3,66,29.94,10.0,West,5.8,-,N/A,,Clear,260,2012-10-15 02:54:00
10:14 PM,43.0,32.9,68,29.95,10.0,West,5.8,-,N/A,,Clear,270,2012-10-15 03:14:00
10:35 PM,42.3,32.9,69,29.95,10.0,West,5.8,-,N/A,,Clear,260,2012-10-15 03:35:00
10:54 PM,41.5,33.1,72,29.95,10.0,West,5.8,-,N/A,,Clear,260,2012-10-15 03:54:00
11:14 PM,39.7,32.4,75,29.95,10.0,West,4.6,-,N/A,,Clear,270,2012-10-15 04:14:00
11:34 PM,39.2,32.0,75,29.96,10.0,West,4.6,-,N/A,,Clear,270,2012-10-15 04:34:00